Preview of NWS' New Version of Forecast
This preview is not operational and should not be used for support decisions.

Regional Weather Roundup (RWR)

Issued by National Weather Service (NWS)

                            
000
ASCA42 TJSJ 201710
RWRPR 
PUERTO RICO/U.S. VIRGIN ISLANDS HOURLY WEATHER ROUNDUP
NATIONAL WEATHER SERVICE SAN JUAN PR
100 PM AST SAT APR 20 2019

PRZ001>002-007>008-010-201800-
PUERTO RICO
  
CITY           SKY/WX    TMP DP  RH WIND       PRES   REMARKS
SAN JUAN LMM   MOSUNNY   88  70  55 NE22G30   30.07F HX  92           
AGUADILLA      SUNNY     82  70  65 E23G29    30.07F                  
CEIBA          SUNNY     88  70  55 MISG      30.10F HX  92           
$$

VIZ001>002-201800-
U.S. VIRGIN ISLANDS
  
CITY           SKY/WX    TMP DP  RH WIND       PRES   REMARKS
CHARLOTTE AMA  SUNNY     84  68  58 SE18      30.07F                  
CHRISTIANSTED  MOSUNNY   88  68  51 E20       30.08F HX  91           
$$

HOURLY WEATHER ROUNDUP FOR THE NEWS MEDIA
  
CITY           SKY/WX    TMP DP  RH WIND       PRES   REMARKS
ORLANDO        FAIR      74  47  38 W21G31    29.97S                  
NEW YORK       CLOUDY    59  59 100 S17       29.77F FOG              
NEWARK         CLOUDY    65  61  87 SE7G17    29.74S                  
CHICAGO        FAIR      57  12  17 NE24G33   29.84F                  
HARTFORD       CLOUDY    66  65  96 S20G33    29.92S                  
BOSTON         LGT RAIN  72  64  76 S22G33    29.89S                  
DALLAS         SUNNY     71  41  33 VRB7      30.09F                  
PHILADELPHIA   CLOUDY    68  63  84 S16       29.70R                  
LOS ANGELES    CLOUDY    59  52  77 SW9       30.00R                  
WASHINGTON DC  PTSUNNY   70  50  49 S16G29    29.63S